Погода в Пачелме

Погода в Пачелме : погода сейчас, прогноз погоды и архив. Всё, что Вы хотите узнать о погоде в Пачелме!

Хотите узнать прогноз погоды в Пачелме? Тогда Вам сюда: Погода в Пачелме

Поиск расширенной информации на нашем сайте:

Другие новости

Новости СМИ2

Главная страница сайта

Новости сайта

03.07.2017

Напоминаем, что на нашем специализированном сайте Метеоцентр.Азия вы можете получить высокодетализированные автоматические прогнозы погоды по пунктам России, СНГ и мира в авиационном формате (включающие направление и скорость ветра, видимость, явления погоды, количество и форму облачности, нижнюю и верхнюю границу облачности).


Погода в Пачелме - сегодня

Время (UTC), дата Ветер
(°,м/с) 
Видим.   Явления Облачность Т
(°С)
Тd
(°С)
f(%) Тe
(°С)
Pmin
(гПа)
dP
(гПа)
Po
(мм)
O2
(г/м3)
Тmin Tmax R s Состояние
почвы
03 16.02.18 160 (Ю) 10 км    10/0 средняя 
[Ac und]
-9.2 -11 87 -13  1039.3  0.1  754  315  -9.7      31  неравномерный
сухой снег
100% 
06 16.02.18 160 (Ю) 10 км    10/0 средняя 
[Ac As]
-8.9 -11 85 -12  1040  0.7  754  315           
09 16.02.18 160 (Ю) 10 км    9/0 средняя 
[Ac cast]
-7 -10.5 76 -11  1039.7  754  313           
12 16.02.18 150 (ЮВ) 10 км    8/0 средняя 
[Ac cast]
-6.1 -9.8 75 -9  1039.1  -0.5  754  312           
18 16.02.18 150 (ЮВ) 10 км    10/0 средняя 
[Ac und]
-8.1 -10.8 81 -12  1038.3  -0.6  753  314           
21 16.02.18 160 (Ю) 10 км    10/0 средняя 
[As trans]
-8.9 -11.3 83 -13  1037.4  -0.6  752  314           
03 17.02.18 140 (ЮВ) 10 км    10/0 средняя 
[As op]
-9.8 -11.6 87 -14  1035.6  -1.3  751  315  -9.8      31  неравномерный
сухой снег
100% 
06 17.02.18 150 (ЮВ) 4000 м  слаб. снег  10/0 средняя 
[As op]
-8.7 -10.8 85 -13  1034.8  -0.7  750  313           
18 17.02.18 150 (ЮВ) 6{11}  10 км    10/0 средняя 
[As op]
-8.2 -11.8 75 -13  1030.1  -1  747  311           
03 18.02.18 140 (ЮВ) 10 км  слаб. снег  10/0 средняя 
[As op]
-9.9 -11.4 89 -14  1026.9  -1.1  745  312  -9.9    0.2  31  неравномерный
сухой снег
100% 
06 18.02.18 140 (ЮВ) 10 км  {снег}  10/0 средняя 
[As op]
-8.8 -11.1 83 -13  1025.7  -1  744  311           
09 18.02.18 150 (ЮВ) 10 км  {снег}  10/0 средняя 
[As op]
-7.2 -9.1 86 -11  1024.5  -0.9  743  308           
15 18.02.18 160 (Ю) 4000 м  слаб. снег  10/10 600 м 
[Ns]
-9.4 -10.2 94 -13  1022.6  -0.4  742  310    -6     
18 18.02.18 180 (Ю) 10 км  {снег}  3/0 средняя 
[As op]
-10.8 -11.5 95 -14  1022.7  0.1  741  312           
21 18.02.18 190 (Ю) 10 км    8/0 средняя 
[As op]
-11.1 -11.4 98 -14  1021.7  -0.9  741  312           
00 19.02.18 180 (Ю) 10 км    10/0 средняя 
[Ac As]
-10.2 -10.4 98 -12  1021.6  741  311           
03 19.02.18 180 (Ю) 10 км    10/0 средняя 
[Ac As]
-9.5 -10.8 90 -12  1020.9  -0.6  740  310  -11.4    32  неравномерный
сухой снег
100% 
09 19.02.18 190 (Ю) 10 км  {снег}  10/0 средняя 
[As op]
-4 -5.7 88 -6  1019.9  -0.4  740  303           
03 20.02.18 250 (З) 10 км    10/10 540 м 
[Sc]
-5.8 -6.4 96 -7  1017.4  -0.7  738  305  -5.8    0.6  33  неравномерный
сухой снег
100% 
06 20.02.18 230 (ЮЗ) 10 км    9/0 средняя 
[Ac As]
-5.9 -6.1 99 -8  1017.3  0.1  738  305  -6.5         
09 20.02.18 240 (ЮЗ) 10 км    8/0 средняя 
[Ac As]
-6.5 -8 89 -9  1017.4  738  305           
12 20.02.18 270 (З) 10 км    9/0 средняя 
[Ac As]
-5.8 -7.2 90 -8  1017.4  0.1  738  305           
15 20.02.18 280 (З) 4000 м  слаб. снег  10/10 480 м 
[Sc]
-6.1 -7.2 92 -9  1018.2  0.7  739  305    -5.1  0.2     
21 20.02.18 260 (З) 4000 м  слаб. снег  10/0 средняя 
[Ac As]
-8.9 -9.4 96 -11  1019.8  0.1  740  309           
03 21.02.18 260 (З) 10 км    10/0 средняя 
[As op]
-10.4 -10.6 98 -12  1020.4  0.1  740  311  -11.2    0.3  34  неравномерный
сухой снег
100% 
Время (UTC), дата Ветер
(°,м/с) 
Видим.   Явления Облачность Т
(°С)
Тd
(°С)
f(%) Тe
(°С)
Pmin
(гПа)
dP
(гПа)
Po
(мм)
O2
(г/м3)
Тmin Tmax R s Состояние
почвы

Для получения пояснительной информации подведите курсор к названию столбца.

ПОГОДА в Пачелме - архив

Всё, что Вы хотите узнать о погоде в Пачелме - удобно и подробно!

Выберите нужную дату (начиная с 1 января 2015* года) и нажмите кнопку "Найти".
Будут отображены архивные сводки погоды по пункту Пачелма, начиная с указанной даты.


Отображать данные в формате CSV (для использования в таблицах Excel)


Внимание! Наш архив погоды предназначен исключительно для личного некоммерческого использования в познавательных целях. Если Вам необходимы официальные справки о состоянии погоды (для производственных, юридических, коммерческих и т.п. целей), обращайтесь в органы Росгидромета.

*Примечание: данная дата относится к архиву по метеостанциям СССР (Россия, СНГ, Балтия).
Архив по метеостанциям Зарубежной Европы и Азии (кроме Китая) хранится 10 дней, по другим регионам земного шара (Китай, Африка, Америка, Австралия, Океания) - 1 день.

Пачелма - район местоположения метеостанции


Название, широта, долгота, высота метеостанции:
Пачелма 53.3°ш. 43.3°д. 261 м над ур. моря [Российская Федерация]

Дополнительная информация

В oтличие oт бoльшинства пoгoдных сайтoв мы публикуем пoдрoбную метеoинфoрмацию в детальнoм прoфессиoнальнoм фoрмате.

Характеристики температуры и влажнoсти вoздуха измеряются на высoте 2 м в тени вдали oт зданий и деревьев.
Скoрoсть ветра измеряется на высoте 10 м (на урoвне рoста челoвека скoрoсть ветра ниже в 1.5-2 раза). Если метеoстанция нахoдится в гoрoде или в лесу, тo скoрoсть ветра занижена на 2-4 м/с пo сравнению с oткрытым местoм. Скoрoсть ветра над акватoриями крупных рек и oзёр, а также на вершинах хoлмoв на 2-5 м/с выше, чем в oбычных услoвиях.
Атмoсфернoе давление в разных тoчках местнoсти мoжет значительнo oтличаться oт давления на метеoстанции, в зависимoсти oт услoвий рельефа (при пoдъёме на 10 м давление пoнижается примернo на 1 мм рт.ст.).